Flag for Germany Weather past 2 weeks in Merseburg, Saxony-Anhalt, Germany

Now
52 °F

Clear.


Feels Like: 49 °F
Forecast: 40 / 49 °F
Wind: 9 mph from Southwest

Location: Leipzig-Schkeuditz

Current Time: Oct 21, 2014 at 5:55:27 AM

Latest Report: Oct 21, 2014 at 5:20 AM


Visibility: 10 mi

Pressure: 29.86 "Hg

Humidity: 88%

Dew point: 48 °F

Location of MerseburgLocation

Historic Weather in Merseburg — Graph

°F

Merseburg temperature yesterday

Maximum temperature yesterday: 63 °F (at 12:20 AM)
Minimum temperature yesterday: 52 °F (at 10:50 PM)
Average temperature yesterday: 58 °F

Past Weeks' High & Low Weather Summary

 TemperatureHumidityPressure
High73 °F (Oct 9, 3:20 PM)100% (Oct 6, 4:20 AM)30.21 "Hg (Oct 6, 4:20 AM)
Low46 °F (Oct 7, 3:50 AM)52% (Oct 15, 3:50 PM)29.68 "Hg (Oct 16, 2:50 PM)
Average58 °F86%29.89 "Hg
* Reported Oct 6 4:20 AM — Oct 21 4:50 AM, Merseburg, Weather by CustomWeather, © 2014

Note: Actual official high and low records may vary slightly from our data, if they occured in-between our weather recording intervals... More about our weather records

Advertising

Merseburg weather history for previous 24 hours

 ConditionsComfort  
Time TempWeatherWind HumidityBarometerVisibility
4:50 AM
Oct 21
52 °FClear.8 mph88%29.86 "Hg10 mi
4:20 AM52 °FClear.7 mph88%29.86 "Hg10 mi
3:50 AM52 °FClear.9 mph88%29.89 "Hg10 mi
3:20 AM52 °FClear.10 mph94%29.89 "Hg10 mi
2:50 AM52 °FClear.8 mph88%29.89 "Hg10 mi
2:20 AM52 °FClear.9 mph88%29.89 "Hg10 mi
1:50 AM52 °FClear.9 mph88%29.89 "Hg10 mi
1:20 AM52 °FClear.9 mph88%29.89 "Hg10 mi
12:50 AM52 °FClear.10 mph88%29.89 "Hg10 mi
12:20 AM54 °FClear.9 mph82%29.92 "Hg10 mi
11:50 PM
Oct 20
54 °FClear.9 mph88%29.92 "Hg10 mi
11:20 PM54 °FClear.10 mph82%29.92 "Hg10 mi
10:50 PM52 °FClear.10 mph88%29.92 "Hg10 mi
10:20 PM54 °FClear.12 mph82%29.92 "Hg10 mi
9:50 PM54 °FClear.12 mph82%29.92 "Hg10 mi
9:20 PM55 °FClear.12 mph82%29.92 "Hg10 mi
8:50 PM55 °FClear.10 mph82%29.92 "Hg10 mi
8:20 PM55 °FPassing clouds.10 mph82%29.95 "HgN/A
7:50 PM55 °FClear.12 mph82%29.95 "Hg10 mi
7:20 PM57 °FClear.13 mph77%29.95 "Hg10 mi
6:50 PM57 °FSunny.13 mph77%29.95 "Hg10 mi
6:20 PM57 °FSunny.13 mph77%29.95 "Hg10 mi
5:50 PM57 °FSunny.15 mph77%29.95 "Hg10 mi
5:20 PM59 °FSunny.14 mph72%29.95 "Hg10 mi
4:50 PM59 °FSunny.16 mph72%29.95 "Hg10 mi
4:20 PM61 °FSunny.20 mph68%29.95 "Hg10 mi
3:50 PM61 °FSunny.21 mph68%29.95 "Hg10 mi
3:20 PM63 °FBroken clouds.20 mph64%29.95 "HgN/A
2:50 PM63 °FBroken clouds.24 mph68%29.95 "HgN/A
2:20 PM63 °FBroken clouds.23 mph64%29.95 "HgN/A
1:50 PM63 °FBroken clouds.20 mph64%29.98 "HgN/A
1:20 PM63 °FBroken clouds.21 mph64%29.98 "HgN/A
12:50 PM63 °FBroken clouds.21 mph68%29.98 "HgN/A
12:20 PM61 °FBroken clouds.23 mph72%29.98 "HgN/A
11:50 AM61 °FBroken clouds.22 mph72%29.98 "HgN/A
11:20 AM59 °FSunny.20 mph77%29.98 "Hg10 mi
10:50 AM57 °FPartly sunny.18 mph82%29.98 "HgN/A
10:20 AM57 °FBroken clouds.18 mph82%29.98 "HgN/A
9:50 AM57 °FBroken clouds.15 mph88%29.98 "HgN/A
9:20 AM57 °FBroken clouds.16 mph82%29.98 "HgN/A
8:50 AM55 °FBroken clouds.12 mph88%29.98 "HgN/A
8:20 AM55 °FPartly cloudy.13 mph88%29.98 "HgN/A
7:50 AM55 °FPartly cloudy.14 mph88%29.98 "HgN/A
7:20 AM54 °FPartly cloudy.12 mph94%29.98 "HgN/A
6:50 AM55 °FPassing clouds.12 mph88%29.98 "HgN/A
5:20 AM57 °FFog.5 mph100%29.95 "HgN/A
Weather by CustomWeather, © 2014

See weather overviewHow to use our weather pages